DG2MCM-11 Weather Reports


time (UTC)temp
C
wind
direction
speed
KPH
gust
KPH
rain 1hr
cm
rain 24hr
cm
rain mn
cm
humidity
%
barometer
mb
20260507010820 8 0 0.0 0.0 0.00 0.00 0.00 81 1012.7
20260507005818 8 0 0.0 0.0 0.00 0.00 0.00 81 1012.6
20260506225754 8 0 0.0 0.0 0.00 0.00 0.00 80 1012.5
20260506223750 8 0 0.0 0.0 0.00 0.00 0.00 79 1012.4
20260506222748 8 0 0.0 0.0 0.00 0.00 0.00 80 1012.4
20260506214843 8 0 0.0 0.0 0.00 0.00 0.00 81 1012.3
20260506213842 8 0 0.0 0.0 0.00 0.00 0.00 80 1012.2
20260506211839 8 0 0.0 0.0 0.00 0.00 0.00 81 1012.3
20260506210836 8 0 0.0 0.0 0.00 0.00 0.00 81 1012.2
20260506203832 8 0 0.0 0.0 0.00 0.00 0.00 80 1012.0
20260506202830 8 0 0.0 0.0 0.00 0.00 0.00 80 1011.9
20260506201828 8 0 0.0 0.0 0.00 0.00 0.00 80 1011.8
20260506194823 8 0 0.0 0.0 0.00 0.00 0.00 80 1011.5
20260506193821 8 0 0.0 0.0 0.00 0.00 0.00 80 1011.4
20260506192820 8 0 0.0 0.0 0.00 0.00 0.00 80 1011.4
20260506191818 8 0 0.0 0.0 0.00 0.00 0.00 80 1011.4
20260506185816 8 0 0.0 0.0 0.00 0.00 0.00 79 1011.1
20260506184813 9 0 0.0 0.0 0.00 0.00 0.00 78 1011.0
20260506180808 10 0 0.0 0.0 0.00 0.00 0.00 76 1010.4
20260506174805 10 0 0.0 0.0 0.00 0.00 0.00 76 1010.0
20260506172801 10 0 0.0 0.0 0.00 0.00 0.00 79 1009.7
20260506170758 10 0 0.0 0.0 0.00 0.00 0.00 80 1009.7
20260506165756 10 0 0.0 0.0 0.00 0.00 0.00 79 1009.3
20260506164754 10 0 0.0 0.0 0.00 0.00 0.00 80 1009.4
20260506163752 9 0 0.0 0.0 0.00 0.00 0.00 78 1009.7
20260506161749 10 0 0.0 0.0 0.00 0.00 0.00 70 1009.3
20260506160747 11 0 0.0 0.0 0.00 0.00 0.00 70 1009.0
20260506155845 11 0 0.0 0.0 0.00 0.00 0.00 71 1009.1
20260506153843 11 0 0.0 0.0 0.00 0.00 0.00 71 1008.5
20260506152842 11 0 0.0 0.0 0.00 0.00 0.00 73 1008.2
20260506150838 11 0 0.0 0.0 0.00 0.00 0.00 73 1008.0
20260506145837 12 0 0.0 0.0 0.00 0.00 0.00 69 1007.6
20260506144835 15 0 0.0 0.0 0.00 0.00 0.00 67 1006.4
20260506142832 15 0 0.0 0.0 0.00 0.00 0.00 67 1005.5
20260506140828 16 0 0.0 0.0 0.00 0.00 0.00 65 1005.4
20260506131822 12 0 0.0 0.0 0.00 0.00 0.00 80 1007.2
20260506130820 13 0 0.0 0.0 0.00 0.00 0.00 75 1007.0
20260506124817 14 0 0.0 0.0 0.00 0.00 0.00 77 1006.4
20260506123815 13 0 0.0 0.0 0.00 0.00 0.00 79 1006.0
20260506122813 14 0 0.0 0.0 0.00 0.00 0.00 73 1005.7
20260506121811 15 0 0.0 0.0 0.00 0.00 0.00 65 1005.0
20260506115807 17 0 0.0 0.0 0.00 0.00 0.00 57 1004.3
20260506114805 18 0 0.0 0.0 0.00 0.00 0.00 54 1004.1
20260506113803 19 0 0.0 0.0 0.00 0.00 0.00 50 1003.7
20260506105748 19 0 0.0 0.0 0.00 0.00 0.00 49 1004.2
20260506104747 20 0 0.0 0.0 0.00 0.00 0.00 48 1003.8
20260506103845 22 0 0.0 0.0 0.00 0.00 0.00 44 1003.3
20260506102843 23 0 0.0 0.0 0.00 0.00 0.00 43 1002.9
20260506101842 26 0 0.0 0.0 0.00 0.00 0.00 38 1002.6
20260506093836 23 0 0.0 0.0 0.00 0.00 0.00 44 1003.9
20260506092834 18 0 0.0 0.0 0.00 0.00 0.00 52 1005.0
20260506091832 18 0 0.0 0.0 0.00 0.00 0.00 54 1005.3
20260506090830 17 0 0.0 0.0 0.00 0.00 0.00 56 1005.5
20260506085829 17 0 0.0 0.0 0.00 0.00 0.00 58 1005.4
20260506083825 17 0 0.0 0.0 0.00 0.00 0.00 56 1005.6
20260506082823 16 0 0.0 0.0 0.00 0.00 0.00 59 1005.8
20260506072814 13 0 0.0 0.0 0.00 0.00 0.00 71 1006.5
20260506071812 12 0 0.0 0.0 0.00 0.00 0.00 71 1006.9
20260506070810 13 0 0.0 0.0 0.00 0.00 0.00 70 1006.8
20260506060759 11 0 0.0 0.0 0.00 0.00 0.00 76 1007.8
20260506050750 8 0 0.0 0.0 0.00 0.00 0.00 82 1008.5
20260506044747 8 0 0.0 0.0 0.00 0.00 0.00 84 1009.0
20260506043845 8 0 0.0 0.0 0.00 0.00 0.00 85 1009.1
20260506042843 8 0 0.0 0.0 0.00 0.00 0.00 86 1009.1
20260506041841 8 0 0.0 0.0 0.00 0.00 0.00 85 1009.1
20260506040839 8 0 0.0 0.0 0.00 0.00 0.00 85 1009.2
20260506033835 8 0 0.0 0.0 0.00 0.00 0.00 86 1009.4
20260506030830 8 0 0.0 0.0 0.00 0.00 0.00 84 1009.6
20260506025829 8 0 0.0 0.0 0.00 0.00 0.00 84 1009.8
20260506023825 8 0 0.0 0.0 0.00 0.00 0.00 84 1010.0
20260506022824 8 0 0.0 0.0 0.00 0.00 0.00 85 1010.0
20260506015820 8 0 0.0 0.0 0.00 0.00 0.00 84 1010.4